Year,Month,Day,Hour,Minute,Value (Times are PST for temperature in C)
2015,05,27,00,00,11.40
2015,05,27,00,01,11.40
2015,05,27,00,02,11.40
2015,05,27,00,03,11.30
2015,05,27,00,04,11.30
2015,05,27,00,05,11.30
2015,05,27,00,06,11.30
2015,05,27,00,07,11.30
2015,05,27,00,08,11.30
2015,05,27,00,09,11.30
2015,05,27,00,10,11.30
2015,05,27,00,11,11.20
2015,05,27,00,12,11.20
2015,05,27,00,13,11.20
2015,05,27,00,14,11.20
2015,05,27,00,15,11.20
2015,05,27,00,16,11.20
2015,05,27,00,17,11.20
2015,05,27,00,18,11.20
2015,05,27,00,19,11.20
2015,05,27,00,20,11.20
2015,05,27,00,21,11.20
2015,05,27,00,22,11.10
2015,05,27,00,23,11.10
2015,05,27,00,24,11.10
2015,05,27,00,25,11.10
2015,05,27,00,26,11.10
2015,05,27,00,27,11.10
2015,05,27,00,28,11.10
2015,05,27,00,29,11.10
2015,05,27,00,30,11.10
2015,05,27,00,31,11.10
2015,05,27,00,32,11.10
2015,05,27,00,33,11.10
2015,05,27,00,34,11.10
2015,05,27,00,35,11.10
2015,05,27,00,36,11.10
2015,05,27,00,37,11.00
2015,05,27,00,38,11.00
2015,05,27,00,39,11.00
2015,05,27,00,40,11.00
2015,05,27,00,41,11.00
2015,05,27,00,42,11.00
2015,05,27,00,43,11.00
2015,05,27,00,44,11.00
2015,05,27,00,45,11.00
2015,05,27,00,46,10.90
2015,05,27,00,47,10.90
2015,05,27,00,48,10.90
2015,05,27,00,49,10.90
2015,05,27,00,50,10.90
2015,05,27,00,51,10.90
2015,05,27,00,52,10.90
2015,05,27,00,53,10.90
2015,05,27,00,54,10.90
2015,05,27,00,55,10.80
2015,05,27,00,56,10.80
2015,05,27,00,57,10.80
2015,05,27,00,58,10.80
2015,05,27,00,59,10.70
2015,05,27,01,00,10.70
2015,05,27,01,01,10.70
2015,05,27,01,02,10.70
2015,05,27,01,03,10.70
2015,05,27,01,04,10.70
2015,05,27,01,05,10.70
2015,05,27,01,06,10.70
2015,05,27,01,07,10.70
2015,05,27,01,08,10.70
2015,05,27,01,09,10.70
2015,05,27,01,10,10.70
2015,05,27,01,11,10.70
2015,05,27,01,12,10.70
2015,05,27,01,13,10.70
2015,05,27,01,14,10.70
2015,05,27,01,15,10.70
2015,05,27,01,16,10.70
2015,05,27,01,17,10.70
2015,05,27,01,18,10.70
2015,05,27,01,19,10.70
2015,05,27,01,20,10.70
2015,05,27,01,21,10.70
2015,05,27,01,22,10.70
2015,05,27,01,23,10.60
2015,05,27,01,24,10.60
2015,05,27,01,25,10.60
2015,05,27,01,26,10.60
2015,05,27,01,27,10.50
2015,05,27,01,28,10.50
2015,05,27,01,29,10.50
2015,05,27,01,30,10.40
2015,05,27,01,31,10.40
2015,05,27,01,32,10.40
2015,05,27,01,33,10.40
2015,05,27,01,34,10.30
2015,05,27,01,35,10.30
2015,05,27,01,36,10.30
2015,05,27,01,37,10.30
2015,05,27,01,38,10.30
2015,05,27,01,39,10.30
2015,05,27,01,40,10.30
2015,05,27,01,41,10.30
2015,05,27,01,42,10.30
2015,05,27,01,43,10.30
2015,05,27,01,44,10.30
2015,05,27,01,45,10.30
2015,05,27,01,46,10.30
2015,05,27,01,47,10.30
2015,05,27,01,48,10.30
2015,05,27,01,49,10.20
2015,05,27,01,50,10.20
2015,05,27,01,51,10.20
2015,05,27,01,52,10.20
2015,05,27,01,53,10.20
2015,05,27,01,54,10.20
2015,05,27,01,55,10.20
2015,05,27,01,56,10.20
2015,05,27,01,57,10.10
2015,05,27,01,58,10.10
2015,05,27,01,59,10.10
2015,05,27,02,00,10.10
2015,05,27,02,01,10.10
2015,05,27,02,02,10.10
2015,05,27,02,03,10.10
2015,05,27,02,04,10.10
2015,05,27,02,05,10.10
2015,05,27,02,06,10.00
2015,05,27,02,07,10.00
2015,05,27,02,08,10.00
2015,05,27,02,09,10.00
2015,05,27,02,10,9.90
2015,05,27,02,11,9.90
2015,05,27,02,12,9.90
2015,05,27,02,13,9.90
2015,05,27,02,14,9.90
2015,05,27,02,15,9.90
2015,05,27,02,16,9.90
2015,05,27,02,17,9.80
2015,05,27,02,18,9.80
2015,05,27,02,19,9.80
2015,05,27,02,20,9.80
2015,05,27,02,21,9.80
2015,05,27,02,22,9.80
2015,05,27,02,23,9.80
2015,05,27,02,24,9.80
2015,05,27,02,25,9.70
2015,05,27,02,26,9.70
2015,05,27,02,27,9.70
2015,05,27,02,28,9.70
2015,05,27,02,29,9.70
2015,05,27,02,30,9.70
2015,05,27,02,31,9.80
2015,05,27,02,32,9.80
2015,05,27,02,33,9.80
2015,05,27,02,34,9.80
2015,05,27,02,35,9.70
2015,05,27,02,36,9.70
2015,05,27,02,37,9.70
2015,05,27,02,38,9.70
2015,05,27,02,39,9.70
2015,05,27,02,40,9.60
2015,05,27,02,41,9.60
2015,05,27,02,42,9.60
2015,05,27,02,43,9.60
2015,05,27,02,44,9.70
2015,05,27,02,45,9.60
2015,05,27,02,46,9.60
2015,05,27,02,47,9.60
2015,05,27,02,48,9.60
2015,05,27,02,49,9.60
2015,05,27,02,50,9.60
2015,05,27,02,51,9.60
2015,05,27,02,52,9.60
2015,05,27,02,53,9.60
2015,05,27,02,54,9.60
2015,05,27,02,55,9.60
2015,05,27,02,56,9.60
2015,05,27,02,57,9.60
2015,05,27,02,58,9.60
2015,05,27,02,59,9.60
2015,05,27,03,00,9.60
2015,05,27,03,01,9.60
2015,05,27,03,02,9.60
2015,05,27,03,03,9.60
2015,05,27,03,04,9.60
2015,05,27,03,05,9.60
2015,05,27,03,06,9.60
2015,05,27,03,07,9.50
2015,05,27,03,08,9.50
2015,05,27,03,09,9.50
2015,05,27,03,10,9.50
2015,05,27,03,11,9.50
2015,05,27,03,12,9.50
2015,05,27,03,13,9.50
2015,05,27,03,14,9.40
2015,05,27,03,15,9.40
2015,05,27,03,16,9.40
2015,05,27,03,17,9.40
2015,05,27,03,18,9.40
2015,05,27,03,19,9.40
2015,05,27,03,20,9.30
2015,05,27,03,21,9.30
2015,05,27,03,22,9.30
2015,05,27,03,23,9.30
2015,05,27,03,24,9.30
2015,05,27,03,25,9.30
2015,05,27,03,26,9.30
2015,05,27,03,27,9.20
2015,05,27,03,28,9.20
2015,05,27,03,29,9.20
2015,05,27,03,30,9.20
2015,05,27,03,31,9.20
2015,05,27,03,32,9.20
2015,05,27,03,33,9.20
2015,05,27,03,34,9.20
2015,05,27,03,35,9.10
2015,05,27,03,36,9.10
2015,05,27,03,37,9.10
2015,05,27,03,38,9.10
2015,05,27,03,39,9.10
2015,05,27,03,40,9.10
2015,05,27,03,41,9.10
2015,05,27,03,42,9.10
2015,05,27,03,43,9.10
2015,05,27,03,44,9.10
2015,05,27,03,45,9.10
2015,05,27,03,46,9.10
2015,05,27,03,47,9.10
2015,05,27,03,48,9.10
2015,05,27,03,49,9.10
2015,05,27,03,50,9.10
2015,05,27,03,51,9.10
2015,05,27,03,52,9.10
2015,05,27,03,53,9.00
2015,05,27,03,54,9.00
2015,05,27,03,55,9.00
2015,05,27,03,56,9.00
2015,05,27,03,57,8.90
2015,05,27,03,58,8.90
2015,05,27,03,59,8.90
2015,05,27,04,00,9.00
2015,05,27,04,01,9.00
2015,05,27,04,02,9.00
2015,05,27,04,03,9.00
2015,05,27,04,04,9.10
2015,05,27,04,05,9.10
2015,05,27,04,06,9.10
2015,05,27,04,07,9.10
2015,05,27,04,08,9.10
2015,05,27,04,09,9.10
2015,05,27,04,10,9.20
2015,05,27,04,11,9.20
2015,05,27,04,12,9.30
2015,05,27,04,13,9.30
2015,05,27,04,14,9.40
2015,05,27,04,15,9.40
2015,05,27,04,16,9.40
2015,05,27,04,17,9.40
2015,05,27,04,18,9.50
2015,05,27,04,19,9.50
2015,05,27,04,20,9.50
2015,05,27,04,21,9.50
2015,05,27,04,22,9.40
2015,05,27,04,23,9.40
2015,05,27,04,24,9.30
2015,05,27,04,25,9.30
2015,05,27,04,26,9.20
2015,05,27,04,27,9.20
2015,05,27,04,28,9.10
2015,05,27,04,29,9.10
2015,05,27,04,30,9.10
2015,05,27,04,31,9.10
2015,05,27,04,32,9.00
2015,05,27,04,33,9.00
2015,05,27,04,34,9.00
2015,05,27,04,35,9.00
2015,05,27,04,36,8.90
2015,05,27,04,37,8.90
2015,05,27,04,38,8.90
2015,05,27,04,39,8.90
2015,05,27,04,40,8.90
2015,05,27,04,41,8.90
2015,05,27,04,42,8.90
2015,05,27,04,43,8.90
2015,05,27,04,44,8.90
2015,05,27,04,45,8.90
2015,05,27,04,46,8.90
2015,05,27,04,47,8.90
2015,05,27,04,48,8.90
2015,05,27,04,49,8.80
2015,05,27,04,50,8.80
2015,05,27,04,51,8.80
2015,05,27,04,52,8.80
2015,05,27,04,53,8.80
2015,05,27,04,54,8.80
2015,05,27,04,55,8.80
2015,05,27,04,56,8.80
2015,05,27,04,57,8.80
2015,05,27,04,58,8.80
2015,05,27,04,59,8.80
2015,05,27,05,00,8.80
2015,05,27,05,01,8.70
2015,05,27,05,02,8.70
2015,05,27,05,03,8.70
2015,05,27,05,04,8.70
2015,05,27,05,05,8.70
2015,05,27,05,06,8.70
2015,05,27,05,07,8.70
2015,05,27,05,08,8.70
2015,05,27,05,09,8.70
2015,05,27,05,10,8.70
2015,05,27,05,11,8.70
2015,05,27,05,12,8.70
2015,05,27,05,13,8.70
2015,05,27,05,14,8.70
2015,05,27,05,15,8.70
2015,05,27,05,16,8.70
2015,05,27,05,17,8.70
2015,05,27,05,18,8.60
2015,05,27,05,19,8.60
2015,05,27,05,20,8.60
2015,05,27,05,21,8.60
2015,05,27,05,22,8.60
2015,05,27,05,23,8.60
2015,05,27,05,24,8.60
2015,05,27,05,25,8.60
2015,05,27,05,26,8.60
2015,05,27,05,27,8.60
2015,05,27,05,28,8.50
2015,05,27,05,29,8.50
2015,05,27,05,30,8.50
2015,05,27,05,31,8.50
2015,05,27,05,32,8.50
2015,05,27,05,33,8.50
2015,05,27,05,34,8.50
2015,05,27,05,35,8.50
2015,05,27,05,36,8.50
2015,05,27,05,37,8.50
2015,05,27,05,38,8.50
2015,05,27,05,39,8.50
2015,05,27,05,40,8.50
2015,05,27,05,41,8.50
2015,05,27,05,42,8.50
2015,05,27,05,43,8.50
2015,05,27,05,44,8.40
2015,05,27,05,45,8.40
2015,05,27,05,46,8.40
2015,05,27,05,47,8.40
2015,05,27,05,48,8.40
2015,05,27,05,49,8.40
2015,05,27,05,50,8.30
2015,05,27,05,51,8.30
2015,05,27,05,52,8.40
2015,05,27,05,53,8.40
2015,05,27,05,54,8.40
2015,05,27,05,55,8.50
2015,05,27,05,56,8.50
2015,05,27,05,57,8.50
2015,05,27,05,58,8.60
2015,05,27,05,59,8.60
2015,05,27,06,00,8.60
2015,05,27,06,01,8.70
2015,05,27,06,02,8.70
2015,05,27,06,03,8.70
2015,05,27,06,04,8.70
2015,05,27,06,05,8.80
2015,05,27,06,06,8.80
2015,05,27,06,07,8.80
2015,05,27,06,08,8.80
2015,05,27,06,09,8.80
2015,05,27,06,10,8.80
2015,05,27,06,11,8.80
2015,05,27,06,12,8.90
2015,05,27,06,13,8.90
2015,05,27,06,14,8.90
2015,05,27,06,15,8.90
2015,05,27,06,16,8.90
2015,05,27,06,17,9.00
2015,05,27,06,18,9.10
2015,05,27,06,19,9.30
2015,05,27,06,20,9.50
2015,05,27,06,21,9.60
2015,05,27,06,22,9.70
2015,05,27,06,23,9.70
2015,05,27,06,24,9.70
2015,05,27,06,25,9.70
2015,05,27,06,26,9.80
2015,05,27,06,27,9.80
2015,05,27,06,28,9.80
2015,05,27,06,29,9.80
2015,05,27,06,30,9.80
2015,05,27,06,31,9.80
2015,05,27,06,32,9.80
2015,05,27,06,33,9.80
2015,05,27,06,34,9.80
2015,05,27,06,35,9.80
2015,05,27,06,36,9.80
2015,05,27,06,37,9.80
2015,05,27,06,38,9.80
2015,05,27,06,39,9.80
2015,05,27,06,40,9.80
2015,05,27,06,41,9.80
2015,05,27,06,42,9.80
2015,05,27,06,43,9.80
2015,05,27,06,44,9.80
2015,05,27,06,45,9.80
2015,05,27,06,46,9.70
2015,05,27,06,47,9.70
2015,05,27,06,48,9.70
2015,05,27,06,49,9.70
2015,05,27,06,50,9.70
2015,05,27,06,51,9.70
2015,05,27,06,52,9.70
2015,05,27,06,53,9.70
2015,05,27,06,54,9.70
2015,05,27,06,55,9.70
2015,05,27,06,56,9.70
2015,05,27,06,57,9.70
2015,05,27,06,58,9.70
2015,05,27,06,59,9.70
2015,05,27,07,00,9.70
2015,05,27,07,01,9.70
2015,05,27,07,02,9.70
2015,05,27,07,03,9.80
2015,05,27,07,04,9.80
2015,05,27,07,05,9.80
2015,05,27,07,06,9.80
2015,05,27,07,07,9.70
2015,05,27,07,08,9.70
2015,05,27,07,09,9.70
2015,05,27,07,10,9.70
2015,05,27,07,11,9.70
2015,05,27,07,12,9.70
2015,05,27,07,13,9.70
2015,05,27,07,14,9.70
2015,05,27,07,15,9.70
2015,05,27,07,16,9.70
2015,05,27,07,17,9.70
2015,05,27,07,18,9.70
2015,05,27,07,19,9.70
2015,05,27,07,20,9.70
2015,05,27,07,21,9.70
2015,05,27,07,22,9.70
2015,05,27,07,23,9.70
2015,05,27,07,24,9.70
2015,05,27,07,25,9.80
2015,05,27,07,26,9.80
2015,05,27,07,27,9.80
2015,05,27,07,28,9.80
2015,05,27,07,29,9.80
2015,05,27,07,30,9.80
2015,05,27,07,31,9.80
2015,05,27,07,32,9.80
2015,05,27,07,33,9.80
2015,05,27,07,34,9.80
2015,05,27,07,35,9.80
2015,05,27,07,36,9.80
2015,05,27,07,37,9.80
2015,05,27,07,38,9.80
2015,05,27,07,39,9.80
2015,05,27,07,40,9.90
2015,05,27,07,41,9.90
2015,05,27,07,42,10.00
2015,05,27,07,43,10.00
2015,05,27,07,44,10.10
2015,05,27,07,45,10.10
2015,05,27,07,46,10.20
2015,05,27,07,47,10.30
2015,05,27,07,48,10.40
2015,05,27,07,49,10.40
2015,05,27,07,50,10.40
2015,05,27,07,51,10.40
2015,05,27,07,52,10.50
2015,05,27,07,53,10.60
2015,05,27,07,54,10.60
2015,05,27,07,55,10.70
2015,05,27,07,56,10.80
2015,05,27,07,57,10.80
2015,05,27,07,58,10.90
2015,05,27,07,59,11.00
2015,05,27,08,00,11.10
2015,05,27,08,01,11.10
2015,05,27,08,02,11.20
2015,05,27,08,03,11.20
2015,05,27,08,04,11.20
2015,05,27,08,05,11.30
2015,05,27,08,06,11.30
2015,05,27,08,07,11.30
2015,05,27,08,08,11.30
2015,05,27,08,09,11.30
2015,05,27,08,10,11.30
2015,05,27,08,11,11.30
2015,05,27,08,12,11.30
2015,05,27,08,13,11.30
2015,05,27,08,14,11.30
2015,05,27,08,15,11.40
2015,05,27,08,16,11.40
2015,05,27,08,17,11.40
2015,05,27,08,18,11.40
2015,05,27,08,19,11.40
2015,05,27,08,20,11.40
2015,05,27,08,21,11.40
2015,05,27,08,22,11.40
2015,05,27,08,23,11.40
2015,05,27,08,24,11.40
2015,05,27,08,25,11.40
2015,05,27,08,26,11.40
2015,05,27,08,27,11.40
2015,05,27,08,28,11.40
2015,05,27,08,29,11.40
2015,05,27,08,30,11.40
2015,05,27,08,31,11.40
2015,05,27,08,32,11.30
2015,05,27,08,33,11.30
2015,05,27,08,34,11.30
2015,05,27,08,35,11.30
2015,05,27,08,36,11.30
2015,05,27,08,37,11.30
2015,05,27,08,38,11.30
2015,05,27,08,39,11.30
2015,05,27,08,40,11.40
2015,05,27,08,41,11.50
2015,05,27,08,42,11.60
2015,05,27,08,43,11.60
2015,05,27,08,44,11.70
2015,05,27,08,45,11.70
2015,05,27,08,46,11.80
2015,05,27,08,47,11.80
2015,05,27,08,48,11.90
2015,05,27,08,49,11.90
2015,05,27,08,50,12.00
2015,05,27,08,51,12.10
2015,05,27,08,52,12.10
2015,05,27,08,53,12.20
2015,05,27,08,54,12.20
2015,05,27,08,55,12.20
2015,05,27,08,56,12.20
2015,05,27,08,57,12.20
2015,05,27,08,58,12.20
2015,05,27,08,59,12.20
2015,05,27,09,00,12.20
2015,05,27,09,01,12.10
2015,05,27,09,02,12.10
2015,05,27,09,03,12.10
2015,05,27,09,04,12.10
2015,05,27,09,05,12.20
2015,05,27,09,06,12.20
2015,05,27,09,07,12.20
2015,05,27,09,08,12.30
2015,05,27,09,09,12.30
2015,05,27,09,10,12.40
2015,05,27,09,11,12.50
2015,05,27,09,12,12.60
2015,05,27,09,13,12.70
2015,05,27,09,14,12.80
2015,05,27,09,15,12.90
2015,05,27,09,16,12.90
2015,05,27,09,17,13.00
2015,05,27,09,18,13.00
2015,05,27,09,19,13.10
2015,05,27,09,20,13.10
2015,05,27,09,21,13.10
2015,05,27,09,22,13.10
2015,05,27,09,23,13.20
2015,05,27,09,24,13.20
2015,05,27,09,25,13.20
2015,05,27,09,26,13.20
2015,05,27,09,27,13.20
2015,05,27,09,28,13.20
2015,05,27,09,29,13.20
2015,05,27,09,30,13.20
2015,05,27,09,31,13.20
2015,05,27,09,32,13.20
2015,05,27,09,33,13.20
2015,05,27,09,34,13.20
2015,05,27,09,35,13.20
2015,05,27,09,36,13.20
2015,05,27,09,37,13.20
2015,05,27,09,38,13.20
2015,05,27,09,39,13.20
2015,05,27,09,40,13.30
2015,05,27,09,41,13.30
2015,05,27,09,42,13.30
2015,05,27,09,43,13.30
2015,05,27,09,44,13.30
2015,05,27,09,45,13.30
2015,05,27,09,46,13.40
2015,05,27,09,47,13.40
2015,05,27,09,48,13.50
2015,05,27,09,49,13.50
2015,05,27,09,50,13.70
2015,05,27,09,51,13.80
2015,05,27,09,52,13.80
2015,05,27,09,53,14.00
2015,05,27,09,54,14.10
2015,05,27,09,55,14.10
2015,05,27,09,56,14.20
2015,05,27,09,57,14.30
2015,05,27,09,58,14.40
2015,05,27,09,59,14.50
2015,05,27,10,00,14.50
2015,05,27,10,01,14.60
2015,05,27,10,02,14.70
2015,05,27,10,03,14.80
2015,05,27,10,04,14.90
2015,05,27,10,05,15.00
2015,05,27,10,06,15.10
2015,05,27,10,07,15.10
2015,05,27,10,08,15.20
2015,05,27,10,09,15.20
2015,05,27,10,10,15.30
2015,05,27,10,11,15.30
2015,05,27,10,12,15.30
2015,05,27,10,13,15.40
2015,05,27,10,14,15.40
2015,05,27,10,15,15.50
2015,05,27,10,16,15.60
2015,05,27,10,17,15.60
2015,05,27,10,18,15.70
2015,05,27,10,19,15.70
2015,05,27,10,20,15.70
2015,05,27,10,21,15.80
2015,05,27,10,22,15.80
2015,05,27,10,23,15.80
2015,05,27,10,24,15.90
2015,05,27,10,25,15.90
2015,05,27,10,26,16.00
2015,05,27,10,27,16.00
2015,05,27,10,28,16.10
2015,05,27,10,29,16.10
2015,05,27,10,30,16.10
2015,05,27,10,31,16.20
2015,05,27,10,32,16.20
2015,05,27,10,33,16.20
2015,05,27,10,34,16.30
2015,05,27,10,35,16.30
2015,05,27,10,36,16.30
2015,05,27,10,37,16.40
2015,05,27,10,38,16.50
2015,05,27,10,39,16.50
2015,05,27,10,40,16.60
2015,05,27,10,41,16.70
2015,05,27,10,42,16.80
2015,05,27,10,43,16.80
2015,05,27,10,44,16.90
2015,05,27,10,45,16.90
2015,05,27,10,46,17.00
2015,05,27,10,47,17.10
2015,05,27,10,48,17.20
2015,05,27,10,49,17.20
2015,05,27,10,50,17.20
2015,05,27,10,51,17.30
2015,05,27,10,52,17.40
2015,05,27,10,53,17.40
2015,05,27,10,54,17.50
2015,05,27,10,55,17.60
2015,05,27,10,56,17.60
2015,05,27,10,57,17.70
2015,05,27,10,58,17.80
2015,05,27,10,59,17.80
2015,05,27,11,00,17.90
2015,05,27,11,01,18.00
2015,05,27,11,02,18.00
2015,05,27,11,03,18.10
2015,05,27,11,04,18.20
2015,05,27,11,05,18.30
2015,05,27,11,06,18.40
2015,05,27,11,07,18.40
2015,05,27,11,08,18.40
2015,05,27,11,09,18.50
2015,05,27,11,10,18.50
2015,05,27,11,11,18.50
2015,05,27,11,12,18.50
2015,05,27,11,13,18.50
2015,05,27,11,14,18.60
2015,05,27,11,15,18.60
2015,05,27,11,16,18.60
2015,05,27,11,17,18.60
2015,05,27,11,18,18.70
2015,05,27,11,19,18.80
2015,05,27,11,20,18.80
2015,05,27,11,21,18.80
2015,05,27,11,22,18.80
2015,05,27,11,23,18.80
2015,05,27,11,24,18.80
2015,05,27,11,25,18.80
2015,05,27,11,26,18.80
2015,05,27,11,27,18.90
2015,05,27,11,28,18.90
2015,05,27,11,29,18.90
2015,05,27,11,30,19.00
2015,05,27,11,31,19.10
2015,05,27,11,32,19.10
2015,05,27,11,33,19.10
2015,05,27,11,34,19.20
2015,05,27,11,35,19.20
2015,05,27,11,36,19.20
2015,05,27,11,37,19.20
2015,05,27,11,38,19.20
2015,05,27,11,39,19.20
2015,05,27,11,40,19.20
2015,05,27,11,41,19.20
2015,05,27,11,42,19.20
2015,05,27,11,43,19.20
2015,05,27,11,44,19.10
2015,05,27,11,45,19.10
2015,05,27,11,46,19.10
2015,05,27,11,47,19.10
2015,05,27,11,48,19.10
2015,05,27,11,49,19.10
2015,05,27,11,50,19.20
2015,05,27,11,51,19.20
2015,05,27,11,52,19.20
2015,05,27,11,53,19.20
2015,05,27,11,54,19.20
2015,05,27,11,55,19.20
2015,05,27,11,56,19.20
2015,05,27,11,57,19.20
2015,05,27,11,58,19.20
2015,05,27,11,59,19.20
2015,05,27,12,00,19.20
2015,05,27,12,01,19.30
2015,05,27,12,02,19.30
2015,05,27,12,03,19.30
2015,05,27,12,04,19.40
2015,05,27,12,05,19.40
2015,05,27,12,06,19.40
2015,05,27,12,07,19.40
2015,05,27,12,08,19.40
2015,05,27,12,09,19.40
2015,05,27,12,10,19.30
2015,05,27,12,11,19.20
2015,05,27,12,12,19.20
2015,05,27,12,13,19.20
2015,05,27,12,14,19.10
2015,05,27,12,15,19.10
2015,05,27,12,16,19.10
2015,05,27,12,17,19.10
2015,05,27,12,18,19.00
2015,05,27,12,19,19.00
2015,05,27,12,20,19.00
2015,05,27,12,21,18.90
2015,05,27,12,22,18.90
2015,05,27,12,23,18.90
2015,05,27,12,24,18.90
2015,05,27,12,25,18.90
2015,05,27,12,26,19.00
2015,05,27,12,27,19.10
2015,05,27,12,28,19.10
2015,05,27,12,29,19.10
2015,05,27,12,30,19.10
2015,05,27,12,31,19.00
2015,05,27,12,32,19.00
2015,05,27,12,33,19.00
2015,05,27,12,34,18.90
2015,05,27,12,35,18.90
2015,05,27,12,36,18.90
2015,05,27,12,37,19.00
2015,05,27,12,38,19.00
2015,05,27,12,39,19.00
2015,05,27,12,40,19.00
2015,05,27,12,41,19.00
2015,05,27,12,42,19.00
2015,05,27,12,43,19.10
2015,05,27,12,44,19.10
2015,05,27,12,45,19.10
2015,05,27,12,46,19.10
2015,05,27,12,47,19.10
2015,05,27,12,48,19.10
2015,05,27,12,49,19.20
2015,05,27,12,50,19.20
2015,05,27,12,51,19.20
2015,05,27,12,52,19.30
2015,05,27,12,53,19.30
2015,05,27,12,54,19.30
2015,05,27,12,55,19.30
2015,05,27,12,56,19.40
2015,05,27,12,57,19.40
2015,05,27,12,58,19.40
2015,05,27,12,59,19.30
2015,05,27,13,00,19.30
2015,05,27,13,01,19.30
2015,05,27,13,02,19.30
2015,05,27,13,03,19.30
2015,05,27,13,04,19.30
2015,05,27,13,05,19.30
2015,05,27,13,06,19.30
2015,05,27,13,07,19.30
2015,05,27,13,08,19.30
2015,05,27,13,09,19.30
2015,05,27,13,10,19.20
2015,05,27,13,11,19.20
2015,05,27,13,12,19.20
2015,05,27,13,13,19.20
2015,05,27,13,14,19.20
2015,05,27,13,15,19.20
2015,05,27,13,16,19.30
2015,05,27,13,17,19.30
2015,05,27,13,18,19.40
2015,05,27,13,19,19.40
2015,05,27,13,20,19.40
2015,05,27,13,21,19.40
2015,05,27,13,22,19.40
2015,05,27,13,23,19.40
2015,05,27,13,24,19.40
2015,05,27,13,25,19.40
2015,05,27,13,26,19.40
2015,05,27,13,27,19.40
2015,05,27,13,28,19.40
2015,05,27,13,29,19.40
2015,05,27,13,30,19.40
2015,05,27,13,31,19.40
2015,05,27,13,32,19.40
2015,05,27,13,33,19.40
2015,05,27,13,34,19.30
2015,05,27,13,35,19.40
2015,05,27,13,36,19.40
2015,05,27,13,37,19.50
2015,05,27,13,38,19.50
2015,05,27,13,39,19.50
2015,05,27,13,40,19.50
2015,05,27,13,41,19.50
2015,05,27,13,42,19.60
2015,05,27,13,43,19.60
2015,05,27,13,44,19.70
2015,05,27,13,45,19.80
2015,05,27,13,46,19.80
2015,05,27,13,47,19.70
2015,05,27,13,48,19.70
2015,05,27,13,49,19.70
2015,05,27,13,50,19.70
2015,05,27,13,51,19.70
2015,05,27,13,52,19.70
2015,05,27,13,53,19.70
2015,05,27,13,54,19.70
2015,05,27,13,55,19.60
2015,05,27,13,56,19.50
2015,05,27,13,57,19.40
2015,05,27,13,58,19.30
2015,05,27,13,59,19.20
2015,05,27,14,00,19.20
2015,05,27,14,01,19.30
2015,05,27,14,02,19.40
2015,05,27,14,03,19.40
2015,05,27,14,04,19.40
2015,05,27,14,05,19.40
2015,05,27,14,06,19.40
2015,05,27,14,07,19.40
2015,05,27,14,08,19.40
2015,05,27,14,09,19.40
2015,05,27,14,10,19.40
2015,05,27,14,11,19.40
2015,05,27,14,12,19.40
2015,05,27,14,13,19.40
2015,05,27,14,14,19.50
2015,05,27,14,15,19.50
2015,05,27,14,16,19.50
2015,05,27,14,17,19.60
2015,05,27,14,18,19.70
2015,05,27,14,19,19.70
2015,05,27,14,20,19.70
2015,05,27,14,21,19.80
2015,05,27,14,22,19.80
2015,05,27,14,23,19.80
2015,05,27,14,24,19.80
2015,05,27,14,25,19.80
2015,05,27,14,26,19.80
2015,05,27,14,27,19.70
2015,05,27,14,28,19.70
2015,05,27,14,29,19.70
2015,05,27,14,30,19.70
2015,05,27,14,31,19.80
2015,05,27,14,32,19.70
2015,05,27,14,33,19.80
2015,05,27,14,34,19.80
2015,05,27,14,35,19.90
2015,05,27,14,36,20.00
2015,05,27,14,37,20.10
2015,05,27,14,38,20.10
2015,05,27,14,39,20.20
2015,05,27,14,40,20.30
2015,05,27,14,41,20.30
2015,05,27,14,42,20.30
2015,05,27,14,43,20.30
2015,05,27,14,44,20.30
2015,05,27,14,45,20.40
2015,05,27,14,46,20.50
2015,05,27,14,47,20.50
2015,05,27,14,48,20.60
2015,05,27,14,49,20.70
2015,05,27,14,50,20.70
2015,05,27,14,51,20.80
2015,05,27,14,52,20.70
2015,05,27,14,53,20.70
2015,05,27,14,54,20.60
2015,05,27,14,55,20.50
2015,05,27,14,56,20.50
2015,05,27,14,57,20.50
2015,05,27,14,58,20.50
2015,05,27,14,59,20.50
2015,05,27,15,00,20.50
2015,05,27,15,01,20.50
2015,05,27,15,02,20.50
2015,05,27,15,03,20.50
2015,05,27,15,04,20.50
2015,05,27,15,05,20.40
2015,05,27,15,06,20.40
2015,05,27,15,07,20.40
2015,05,27,15,08,20.40
2015,05,27,15,09,20.30
2015,05,27,15,10,20.30
2015,05,27,15,11,20.30
2015,05,27,15,12,20.30
2015,05,27,15,13,20.40
2015,05,27,15,14,20.40
2015,05,27,15,15,20.40
2015,05,27,15,16,20.40
2015,05,27,15,17,20.40
2015,05,27,15,18,20.40
2015,05,27,15,19,20.40
2015,05,27,15,20,20.40
2015,05,27,15,21,20.40
2015,05,27,15,22,20.30
2015,05,27,15,23,20.30
2015,05,27,15,24,20.30
2015,05,27,15,25,20.30
2015,05,27,15,26,20.20
2015,05,27,15,27,20.20
2015,05,27,15,28,20.10
2015,05,27,15,29,20.10
2015,05,27,15,30,20.10
2015,05,27,15,31,20.10
2015,05,27,15,32,20.20
2015,05,27,15,33,20.20
2015,05,27,15,34,20.20
2015,05,27,15,35,20.20
2015,05,27,15,36,20.20
2015,05,27,15,37,20.20
2015,05,27,15,38,20.30
2015,05,27,15,39,20.30
2015,05,27,15,40,20.40
2015,05,27,15,41,20.40
2015,05,27,15,42,20.40
2015,05,27,15,43,20.30
2015,05,27,15,44,20.30
2015,05,27,15,45,20.30
2015,05,27,15,46,20.40
2015,05,27,15,47,20.40
2015,05,27,15,48,20.40
2015,05,27,15,49,20.30
2015,05,27,15,50,20.30
2015,05,27,15,51,20.20
2015,05,27,15,52,20.20
2015,05,27,15,53,20.20
2015,05,27,15,54,20.20
2015,05,27,15,55,20.20
2015,05,27,15,56,20.20
2015,05,27,15,57,20.20
2015,05,27,15,58,20.20
2015,05,27,15,59,20.20
2015,05,27,16,00,20.20
2015,05,27,16,01,20.20
2015,05,27,16,02,20.20
2015,05,27,16,03,20.20
2015,05,27,16,04,20.20
2015,05,27,16,05,20.20
2015,05,27,16,06,20.20
2015,05,27,16,07,20.20
2015,05,27,16,08,20.30
2015,05,27,16,09,20.30
2015,05,27,16,10,20.40
2015,05,27,16,11,20.30
2015,05,27,16,12,20.30
2015,05,27,16,13,20.30
2015,05,27,16,14,20.20
2015,05,27,16,15,20.10
2015,05,27,16,16,20.10
2015,05,27,16,17,19.90
2015,05,27,16,18,19.80
2015,05,27,16,19,19.70
2015,05,27,16,20,19.60
2015,05,27,16,21,19.70
2015,05,27,16,22,19.70
2015,05,27,16,23,19.80
2015,05,27,16,24,19.80
2015,05,27,16,25,19.90
2015,05,27,16,26,19.90
2015,05,27,16,27,19.90
2015,05,27,16,28,19.90
2015,05,27,16,29,19.90
2015,05,27,16,30,19.80
2015,05,27,16,31,19.80
2015,05,27,16,32,19.70
2015,05,27,16,33,19.70
2015,05,27,16,34,19.60
2015,05,27,16,35,19.60
2015,05,27,16,36,19.60
2015,05,27,16,37,19.60
2015,05,27,16,38,19.60
2015,05,27,16,39,19.50
2015,05,27,16,40,19.50
2015,05,27,16,41,19.50
2015,05,27,16,42,19.40
2015,05,27,16,43,19.30
2015,05,27,16,44,19.30
2015,05,27,16,45,19.30
2015,05,27,16,46,19.30
2015,05,27,16,47,19.30
2015,05,27,16,48,19.30
2015,05,27,16,49,19.30
2015,05,27,16,50,19.30
2015,05,27,16,51,19.30
2015,05,27,16,52,19.30
2015,05,27,16,53,19.20
2015,05,27,16,54,19.20
2015,05,27,16,55,19.20
2015,05,27,16,56,19.20
2015,05,27,16,57,19.10
2015,05,27,16,58,19.10
2015,05,27,16,59,19.10
2015,05,27,17,00,19.10
2015,05,27,17,01,19.10
2015,05,27,17,02,19.10
2015,05,27,17,03,19.00
2015,05,27,17,04,19.00
2015,05,27,17,05,19.00
2015,05,27,17,06,18.90
2015,05,27,17,07,18.90
2015,05,27,17,08,18.90
2015,05,27,17,09,18.90
2015,05,27,17,10,18.90
2015,05,27,17,11,18.90
2015,05,27,17,12,18.90
2015,05,27,17,13,18.90
2015,05,27,17,14,19.00
2015,05,27,17,15,19.00
2015,05,27,17,16,19.00
2015,05,27,17,17,19.00
2015,05,27,17,18,19.00
2015,05,27,17,19,19.00
2015,05,27,17,20,19.00
2015,05,27,17,21,18.90
2015,05,27,17,22,18.90
2015,05,27,17,23,18.90
2015,05,27,17,24,18.90
2015,05,27,17,25,18.90
2015,05,27,17,26,18.80
2015,05,27,17,27,18.80
2015,05,27,17,28,18.80
2015,05,27,17,29,18.80
2015,05,27,17,30,18.80
2015,05,27,17,31,18.80
2015,05,27,17,32,18.70
2015,05,27,17,33,18.70